Weather Roundup
Issued by NWS Chicago, IL

Home | Current Version | Previous Version | Graphics & Text | Print | Product List | Glossary On
Versions: 1 2 3 4 5 6 7 8 9 10 11 12 13 14 15 16 17 18 19 20 21 22 23 24 25 26 27 28 29 30 31 32 33 34 35 36 37 38 39 40 41 42 43 44 45 46 47 48 49 50
000
NZUS59 KLOT 010821
HRRLOT

CHICAGO AREA WEATHER ROUNDUP
NATIONAL WEATHER SERVICE CHICAGO/ROMEOVILLE IL
300 AM CDT SAT AUG 01 2015

NOTE: "FAIR" INDICATES FEW OR NO CLOUDS BELOW 12,000 FEET WITH NO
SIGNIFICANT WEATHER AND/OR OBSTRUCTIONS TO VISIBILITY.

* THESE STATIONS ARE NOT UNDER NWS QUALITY CONTROL. THEY ALSO MAY NOT
  REPORT WEATHER SUCH AS PRECIPITATION OR FOG.

ILZ005-006-012>014-019>023-010900-
NORTHEAST ILLINOIS

CITY           SKY/WX    TMP DP  RH WIND       PRES   REMARKS
OHARE            N/A     67  53  61 W8        29.98F
MIDWAY         CLEAR     70  51  51 W5        29.98F
AURORA         CLEAR     58  53  84 CALM      30.01S
LANSING*       CLEAR     64  52  66 W5        29.99S
JOLIET*        CLEAR     62  56  82 CALM      30.00S
WAUKEGAN       CLEAR     64  53  67 VRB3      29.97F
DUPAGE AIRPORT CLEAR     62  53  72 CALM      29.99F
WHEELING       CLEAR     66  51  58 W3        30.00S
KANKAKEE*      CLEAR     62  59  91 W5        30.02R
MORRIS*        CLEAR     59  56  91 NW8       30.00S
LEWIS AIRPORT* CLEAR     61  54  76 NW5       30.00S
NORTHERLY IS     N/A     72  51  47 W12         N/A
$$

WIZ051-052-058>065-066-070>072-010900-
SOUTHEAST WISCONSIN

CITY           SKY/WX    TMP DP  RH WIND       PRES   REMARKS
MILWAUKEE      CLEAR     69  50  50 W7        29.96S
KENOSHA*       CLEAR     59  51  75 W7        29.97F
RACINE*        CLEAR     63  51  65 W7        29.98S
BURLINGTON     CLEAR     56  51  82 CALM      29.98S
WAUKESHA       CLEAR     59  50  72 W7        29.98S
WEST BEND      CLEAR     63  50  63 W7        29.96S
$$

INZ001>003-010>013-019-020-010900-
NORTHWEST INDIANA

CITY           SKY/WX    TMP DP  RH WIND       PRES   REMARKS
GARY*          CLEAR     63  57  80 W5        29.98F
MICHIGAN CITY* NOT AVBL
RENSSELAER*    NOT AVBL
VALPARAISO     CLEAR     65  53  65 W6        29.99F
$$

LMZ740>746-010900-
SOUTHERN LAKE MICHIGAN

STATION/POSITION TIME  SKY/WX   TEMP WIND        PRES    VSBY
                                AIR  DIR/SP/G
                 (UTC)          (F)  (DEG/KT/KT) (MB)    (MI)
HARRISON CRIB    0800            72  300/ 13/ 16   N/A
BURNHAM HARBOR   0800            72  280/  9/ 10   N/A
CALUMET HARBOR   0700            71  260/  2/  5   N/A
BURNS HARBOR     0700            75  300/ 12/ 15 1015.6S
MICHIGAN CITY    0800            73  280/ 14/ 15   N/A
$$

ABBREVIATIONS USED IN REMARKS
   TC - TEMPERATURE IN CELSIUS
  WCI - WIND CHILL INDEX
   HX - HEAT INDEX
  VSB - VISIBILITY
$$



USA.gov is the U.S. government's official web portal to all federal, state and local government web resources and services.